EW9826 Weather Reports


time (UTC)temp
C
wind
direction
speed
KPH
gust
KPH
rain 1hr
cm
rain 24hr
cm
rain mn
cm
humidity
%
barometer
mb
20260506073508 12 25 8.0 19.3 0.00 0.00 0.00 76 1009.0
20260506072508 12 0 8.0 16.1 0.00 0.00 0.00 76 1009.0
20260506062008 11 1 9.7 19.3 0.00 0.00 0.00 80 1008.6
20260506061508 11 11 8.0 16.1 0.00 0.00 0.00 81 1008.6
20260506045007 10 4 9.7 19.3 0.00 0.00 0.00 83 1008.6
20260506044507 10 353 11.3 16.1 0.00 0.00 0.00 83 1008.6
20260506041508 10 5 6.4 14.5 0.00 0.00 0.00 83 1008.6
20260506041008 10 355 6.4 19.3 0.00 0.00 0.00 82 1008.6
20260506035008 9 4 6.4 14.5 0.00 0.00 0.00 82 1008.7
20260506033507 9 2 8.0 16.1 0.00 0.00 0.00 82 1008.9
20260506033008 9 355 9.7 14.5 0.00 0.00 0.00 83 1008.9
20260506032507 9 358 8.0 14.5 0.00 0.00 0.00 83 1008.9
20260506031008 9 339 8.0 14.5 0.00 0.00 0.00 83 1009.0
20260506025007 9 13 6.4 11.3 0.00 0.00 0.00 84 1009.1
20260506024508 9 355 6.4 11.3 0.00 0.00 0.00 84 1009.1
20260506024008 9 11 4.8 12.9 0.00 0.00 0.00 84 1009.1
20260506023507 9 1 4.8 11.3 0.00 0.00 0.00 84 1009.1
20260506023008 9 3 8.0 12.9 0.00 0.00 0.00 84 1009.1
20260506015507 8 1 9.7 16.1 0.00 0.00 0.00 84 1009.2
20260506015007 8 0 9.7 16.1 0.00 0.00 0.00 84 1009.3
20260506014507 8 7 8.0 19.3 0.00 0.00 0.00 84 1009.2
20260506014007 8 350 8.0 19.3 0.00 0.00 0.00 84 1009.2
20260506013507 8 355 8.0 16.1 0.00 0.00 0.00 84 1009.3
20260506012007 8 15 8.0 19.3 0.00 0.00 0.00 84 1009.3
20260506011507 8 11 6.4 12.9 0.00 0.00 0.00 84 1009.3
20260506011007 8 0 8.0 14.5 0.00 0.00 0.00 84 1009.3
20260506010007 8 3 9.7 16.1 0.00 0.00 0.00 84 1009.5
20260506005506 8 0 6.4 14.5 0.00 0.00 0.00 84 1009.6
20260506005007 8 13 4.8 12.9 0.00 0.00 0.00 84 1009.6
20260506003506 8 4 4.8 14.5 0.00 0.00 0.00 83 1009.6
20260506003008 8 328 8.0 19.3 0.00 0.00 0.00 83 1009.7
20260506002508 8 352 11.3 19.3 0.00 0.00 0.00 83 1009.7
20260505235007 8 357 8.0 16.1 0.00 0.00 0.00 81 1010.0
20260505234506 8 351 6.4 14.5 0.00 0.00 0.00 81 1010.0
20260505234007 8 358 8.0 14.5 0.00 0.00 0.00 81 1010.1
20260505233506 8 356 4.8 14.5 0.00 0.00 0.00 81 1010.1
20260505232507 8 355 6.4 12.9 0.00 0.00 0.00 80 1010.1
20260505232007 8 3 8.0 16.1 0.00 0.00 0.00 80 1010.1
20260505231506 8 358 8.0 14.5 0.00 0.00 0.00 79 1010.1
20260505231007 9 3 8.0 27.4 0.00 0.00 0.00 79 1010.2
20260505230007 9 1 8.0 16.1 0.00 0.00 0.00 78 1010.2
20260505225507 9 2 8.0 19.3 0.00 0.00 0.00 78 1010.3
20260505225007 9 3 6.4 12.9 0.00 0.00 0.00 78 1010.3
20260505221507 9 9 8.0 19.3 0.00 0.00 0.00 78 1010.5
20260505221007 9 4 9.7 19.3 0.00 0.00 0.00 78 1010.5
20260505220007 9 347 9.7 14.5 0.00 0.00 0.00 78 1010.6
20260505215506 9 7 9.7 12.9 0.00 0.00 0.00 78 1010.6
20260505215007 9 3 8.0 14.5 0.00 0.00 0.00 78 1010.6
20260505214507 9 0 9.7 14.5 0.00 0.00 0.00 78 1010.6
20260505214006 9 0 6.4 14.5 0.00 0.00 0.00 78 1010.6
20260505213507 9 353 8.0 12.9 0.00 0.00 0.00 78 1010.6
20260505213006 9 355 8.0 14.5 0.00 0.00 0.00 78 1010.7
20260505212506 9 355 6.4 12.9 0.00 0.00 0.00 78 1010.7
20260505212007 9 355 4.8 11.3 0.00 0.00 0.00 78 1010.7
20260505204506 10 359 6.4 12.9 0.00 0.00 0.00 78 1010.9
20260505204006 10 3 4.8 14.5 0.00 0.00 0.00 77 1011.0
20260505203506 10 355 8.0 12.9 0.00 0.00 0.00 77 1010.9
20260505203006 10 3 4.8 11.3 0.00 0.00 0.00 77 1010.9
20260505194506 10 35 4.8 9.7 0.00 0.00 0.00 77 1010.6
20260505194006 10 359 4.8 11.3 0.00 0.00 0.00 77 1010.6
20260505193007 10 315 6.4 12.9 0.00 0.00 0.00 76 1010.6
20260505192506 10 13 8.0 12.9 0.00 0.00 0.00 76 1010.5
20260505191506 11 10 4.8 9.7 0.00 0.00 0.00 75 1010.2
20260505191006 11 9 6.4 14.5 0.00 0.00 0.00 74 1010.2
20260505190006 11 3 8.0 19.3 0.00 0.00 0.00 74 1010.1
20260505185506 11 352 8.0 16.1 0.00 0.00 0.00 74 1010.1
20260505183006 12 19 9.7 22.5 0.00 0.00 0.00 72 1010.0
20260505182506 12 351 9.7 19.3 0.00 0.00 0.00 72 1010.0
20260505173006 13 3 8.0 16.1 0.00 0.00 0.00 68 1009.9
20260505172505 13 19 9.7 19.3 0.00 0.00 0.00 67 1009.9
20260505172006 13 7 6.4 16.1 0.00 0.00 0.00 67 1010.0
20260505171506 13 343 8.0 14.5 0.00 0.00 0.00 67 1010.0
20260505171007 13 357 8.0 20.9 0.00 0.00 0.00 67 1010.0
20260505165505 13 7 14.5 24.1 0.00 0.00 0.00 65 1010.1
20260505165006 13 358 9.7 16.1 0.00 0.00 0.00 65 1010.1
20260505164506 14 351 8.0 19.3 0.00 0.00 0.00 65 1010.1
20260505162005 14 27 11.3 20.9 0.00 0.00 0.00 65 1010.1
20260505161506 14 26 8.0 19.3 0.00 0.00 0.00 65 1010.1
20260505161005 14 61 9.7 19.3 0.00 0.00 0.00 65 1010.1
20260505153006 14 15 8.0 16.1 0.00 0.00 0.00 62 1010.1
20260505152505 14 76 8.0 22.5 0.00 0.00 0.00 63 1010.1
20260505151506 14 67 9.7 20.9 0.00 0.00 0.00 63 1010.1
20260505124505 14 74 9.7 22.5 0.00 0.00 0.00 60 1010.6
20260505124005 15 59 11.3 25.7 0.00 0.00 0.00 61 1010.7
20260505123505 15 56 9.7 19.3 0.00 0.00 0.00 61 1010.7
20260505123005 15 65 8.0 16.1 0.00 0.00 0.00 62 1010.7
20260505122504 14 49 8.0 22.5 0.00 0.00 0.00 62 1010.8
20260505122006 14 60 11.3 20.9 0.00 0.00 0.00 62 1010.7
20260505121505 14 74 8.0 22.5 0.00 0.00 0.00 62 1010.7
20260505121005 14 70 8.0 22.5 0.00 0.00 0.00 62 1010.6
20260505115005 14 27 11.3 22.5 0.00 0.00 0.00 63 1010.8
20260505114505 14 58 11.3 22.5 0.00 0.00 0.00 62 1010.9
20260505114005 14 357 9.7 19.3 0.00 0.00 0.00 63 1011.0
20260505113504 14 25 9.7 20.9 0.00 0.00 0.00 63 1011.1
20260505113005 14 25 8.0 16.1 0.00 0.00 0.00 64 1011.1
20260505112504 14 39 8.0 19.3 0.00 0.00 0.00 65 1011.1
20260505112005 13 64 8.0 20.9 0.00 0.00 0.00 64 1011.1
20260505111505 13 71 11.3 22.5 0.00 0.00 0.00 62 1011.1
20260505111004 13 51 9.7 19.3 0.00 0.00 0.00 64 1011.1
20260505095005 13 342 11.3 19.3 0.00 0.00 0.00 67 1011.7
20260505094504 13 44 4.8 16.1 0.00 0.00 0.00 68 1011.7
20260505094005 13 39 8.0 22.5 0.00 0.00 0.00 67 1011.7
20260505093504 13 31 8.0 14.5 0.00 0.00 0.00 68 1011.7
20260505093004 12 29 11.3 20.9 0.00 0.00 0.00 68 1011.7
20260505092504 13 23 9.7 20.9 0.00 0.00 0.00 67 1011.7
20260505092004 13 52 8.0 16.1 0.00 0.00 0.00 69 1011.8
20260505091504 12 13 9.7 20.9 0.00 0.00 0.00 68 1011.8
20260505091004 13 3 4.8 19.3 0.00 0.00 0.00 69 1011.7
20260505090004 12 47 8.0 20.9 0.00 0.00 0.00 71 1011.7
20260505085504 12 56 8.0 16.1 0.00 0.00 0.00 73 1011.7
20260505084009 12 58 8.0 19.3 0.00 0.00 0.00 73 1011.7
20260505083509 12 81 8.0 20.9 0.00 0.00 0.00 74 1011.8